Location: Bennemühlen
(52.5740°N, 9.7135°E)
Time: 05:52:44
(UTC+00:00)

CZ-2C R/B - Pass Details

Date: 19 May 2025
Orbit: 631 x 693 km, 98.1° (Epoch: 14 June)

Event Time Altitude Azimuth Distance (km) Brightness Sun altitude
Rises 21:35:27 0° 21° (NNE) 2,941 7.7 -14.1°
Reaches altitude 10° 21:37:51 10° 31° (NNE) 2,026 6.7 -14.3°
Maximum altitude 21:41:51 33° 96° (E) 1,059 4.5 -14.5°
Enters shadow 21:43:45 23° 141° (SE) 1,336 4.7 -14.6°
